Weather in Ranino

Russia / Tambov Oblast     52°58′26″N   40°15′17″E
temp.,
°C
wind,
m/s
gust,
m/s
humid.,
%
clouds,
%
prec.,
mm/h
press.,
hPa
HPBL,
m
2 march, tue
tue200:00−2wsw51291100 0.1 1021651
03:00−2w61292100 0.1 1018754
06:000wsw51292100 0.0 1014813
09:00+1w61392100 0.1 1012808
12:00+1w51296100 0.1 1010692
15:00+1wnw51097100 0.3 1010728
18:000wnw41093100 0.2 1009546
21:00−2nw3119399 0.3 1010386
3 march, wed
wed300:00−3nw4109285 0.1 1010344
03:00−3nw4129290 0.1 1012447
06:00−4nw5129494 0.1 1013644
09:00−4nnw6118590 0.2 1015916
12:00−3nnw6117892 0.0 1016894
15:00−2nw5107657 0.0 1017829
18:00−4w411870 0.0 1016449
21:00−1wnw4108649 0.0 1017805
4 march, thu
thu400:00−2w41089100 0.0 1016557
03:00−4wsw489497 0.1 1015266
06:00−2wsw51188100 0.0 1013571
09:00−1sw6138694 0.0 1011577
12:00+1sw7157835 0.0 1008702
15:00+2sw8167525 0.0 1006818
18:00+1sw7167517 0.0 1004857
21:00+1wsw5158518 0.0 1003686
5 march, fri
fri500:00+2wsw41296100 0.1 1002571
03:00+1wsw41098100 0.8 1003494
06:000wnw2699100 0.8 1004242
09:00−2nne2594100 1.8 1006307
12:00−1ene2390100 0.4 1007364
15:00−1e3495100 0.9 1007310
18:00−2ene3697100 1.8 1005309
21:00−2ne3697100 4.0 1004268
6 march, sat
sat600:00−3n5995100 1.0 1004442
03:00−4n51092100 1.6 1006568
06:00−5nnw3794100 0.1 1008387
09:00−6nw469298 0.3 1010388
12:00−4wnw5782100 0.3 1011870
15:00−5wnw587792 0.4 10121039
18:00−7wnw4108391 0.1 1013528
21:00−9w368949 0.1 1014186